Weather History for Rotterdam, Netherlands

Change the Weather History Date:

Tuesday, May 14, 2013

  Actual Average Record
Temperature  
Mean Temperature 48 °F -  
Max Temperature 54 °F 64 °F 78 °F (2000)
Min Temperature 42 °F 48 °F 37 °F (2004)
Degree Days  
Heating Degree Days 17    
Moisture  
Dew Point 44 °F    
Average Humidity 84    
Maximum Humidity 94    
Minimum Humidity 62    
Precipitation  
Precipitation 0.12 in - - ()
Sea Level Pressure  
Sea Level Pressure 29.73 in    
Wind  
Wind Speed 10 mph ()    
Max Wind Speed 18 mph    
Max Gust Speed -    
Visibility 6.7 miles    
Events Rain    
Averages and records for this station are not official NWS values.
T = Trace of Precipitation, MM = Missing Value Source: Averaged Metar Reports

Daily Weather History Graph

Daily Weather History Graph

Search for Another Location

Airport:

Trip Planner

Search our weather history database for the weather conditions in past years. The results will help you decide how hot, cold, wet, or windy it might be!

Date:

Astronomy

May. 14, 2013 Rise Set
Actual Time 5:49 AM CEST 9:28 PM CEST
Civil Twilight 5:08 AM CEST 10:10 PM CEST
Nautical Twilight 4:10 AM CEST 11:08 PM CEST
Astronomical Twilight 2:43 AM CEST 12:38 AM CEST
Moon 9:15 AM CEST (5/14) 12:26 AM CEST (5/14)
Length of Visible Light 17h 02m
Length of Day
15h 38m
Waxing Crescent, 17% of the Moon is Illuminated
May 14
Waxing Crescent
May 18
First Quarter
May 25
Full
May 31
Last Quarter
Jun 8
New

Hourly Weather History & Observations

Time (CEST) Temp. Windchill Dew Point Humidity Pressure Visibility Wind Dir Wind Speed Gust Speed Precip Events Conditions
12:25 AM 48.2 °F - 44.6 °F 87% 29.80 in 4.3 mi WSW 18.4 mph - N/A Rain Rain
12:55 AM 46.4 °F 40.7 °F 41.0 °F 81% 29.80 in 6.2 mi West 12.7 mph - N/A Rain Light Rain
1:25 AM 46.4 °F 41.5 °F 42.8 °F 87% 29.80 in 6.2 mi SW 10.4 mph - N/A   Scattered Clouds
1:55 AM 46.4 °F 40.4 °F 42.8 °F 87% 29.80 in 6.2 mi SW 13.8 mph - N/A Rain Rain Showers
2:00 AM 46 °F - 44 °F 91% 29.80 in 4 mi SW 13.4 mph - - Rain Rain Showers
2:25 AM 44.6 °F 38.8 °F 42.8 °F 93% 29.80 in 6.2 mi SW 11.5 mph - N/A   Partly Cloudy
2:55 AM 44.6 °F 40.2 °F 42.8 °F 93% 29.80 in 6.2 mi SW 8.1 mph - N/A   Mostly Cloudy
3:25 AM 44.6 °F 39.2 °F 42.8 °F 93% 29.77 in 6.2 mi WSW 10.4 mph - N/A   Partly Cloudy
3:55 AM 44.6 °F 39.7 °F 42.8 °F 93% 29.80 in 6.2 mi WSW 9.2 mph - N/A   Partly Cloudy
4:25 AM 44.6 °F 39.7 °F 41.0 °F 87% 29.80 in 6.2 mi WSW 9.2 mph - N/A   Unknown
4:55 AM 44.6 °F 40.2 °F 41.0 °F 87% 29.80 in 6.2 mi WSW 8.1 mph - N/A   Partly Cloudy
5:00 AM 45 °F - 42 °F 85% 29.80 in 17 mi SW 6.7 mph - -   Partly Cloudy
5:25 AM 46.4 °F 42.4 °F 41.0 °F 81% 29.77 in 6.2 mi SW 8.1 mph - N/A   Overcast
5:55 AM 44.6 °F 40.2 °F 41.0 °F 87% 29.77 in 6.2 mi WSW 8.1 mph - N/A   Partly Cloudy
6:25 AM 42.8 °F 38.6 °F 41.0 °F 93% 29.77 in 6.2 mi WSW 6.9 mph - N/A   Partly Cloudy
6:55 AM 44.6 °F 41.4 °F 42.8 °F 93% 29.77 in 6.2 mi SW 5.8 mph - N/A   Mostly Cloudy
7:25 AM 46.4 °F 42.9 °F 42.8 °F 87% 29.77 in 6.2 mi SW 6.9 mph - N/A   Scattered Clouds
7:55 AM 48.2 °F - 44.6 °F 87% 29.77 in 6.2 mi SW 8.1 mph - N/A   Partly Cloudy
8:00 AM 49 °F - 44 °F 78% 29.79 in 9 mi WSW 6.7 mph - -   Partly Cloudy
8:25 AM 48.2 °F - 44.6 °F 87% 29.77 in 6.2 mi WSW 8.1 mph - N/A   Mostly Cloudy
8:55 AM 50.0 °F - 42.8 °F 76% 29.77 in 6.2 mi WSW 9.2 mph - N/A   Overcast
9:25 AM 48.2 °F - 44.6 °F 87% 29.77 in 6.2 mi SW 12.7 mph - N/A Rain Rain
9:55 AM 50.0 °F - 46.4 °F 87% 29.77 in 6.2 mi SW 10.4 mph - N/A   Mostly Cloudy
10:25 AM 51.8 °F - 44.6 °F 76% 29.77 in 6.2 mi SW 15.0 mph - N/A   Scattered Clouds
10:55 AM 50.0 °F - 42.8 °F 76% 29.77 in 6.2 mi SW 12.7 mph - N/A   Mostly Cloudy
11:00 AM 51 °F - 44 °F 68% 29.79 in 9 mi SW 13.4 mph - -   Partly Cloudy
11:25 AM 51.8 °F - 42.8 °F 71% 29.77 in 6.2 mi SW 13.8 mph - N/A   Scattered Clouds
11:55 AM 51.8 °F - 44.6 °F 76% 29.77 in 6.2 mi SSW 13.8 mph - N/A   Mostly Cloudy
12:25 PM 51.8 °F - 42.8 °F 71% 29.77 in 6.2 mi SW 12.7 mph - N/A   Overcast
12:55 PM 53.6 °F - 42.8 °F 67% 29.77 in 6.2 mi SW 13.8 mph - N/A   Overcast
1:25 PM 51.8 °F - 41.0 °F 67% 29.74 in 6.2 mi SW 12.7 mph - N/A   Mostly Cloudy
1:55 PM 51.8 °F - 41.0 °F 67% 29.74 in 6.2 mi SW 13.8 mph - N/A   Scattered Clouds
2:00 PM 51 °F - 42 °F 62% 29.76 in 12 mi SSW 13.4 mph - - Rain Light Rain Showers
2:25 PM 48.2 °F - 44.6 °F 87% 29.74 in 5.6 mi SSW 13.8 mph - N/A Rain Light Rain Showers
2:55 PM 50.0 °F - 44.6 °F 82% 29.74 in 6.2 mi SW 4.6 mph - N/A   Partly Cloudy
3:25 PM 48.2 °F - 44.6 °F 87% 29.74 in 6.2 mi WSW 11.5 mph - N/A Rain Light Rain Showers
3:55 PM 50.0 °F - 46.4 °F 87% 29.74 in 6.2 mi SSW 10.4 mph - N/A Rain Light Rain
4:25 PM 50.0 °F - 46.4 °F 87% 29.71 in 6.2 mi South 9.2 mph - N/A Rain Drizzle
4:55 PM 50.0 °F - 46.4 °F 87% 29.71 in 6.2 mi South 9.2 mph - N/A   Light Drizzle
5:00 PM 51 °F - 47 °F 81% 29.72 in 12 mi South 8.9 mph - - Rain Rain
5:25 PM 50.0 °F - 46.4 °F 87% 29.71 in 6.2 mi South 15.0 mph - N/A Rain Light Rain
5:55 PM 50.0 °F - 46.4 °F 87% 29.68 in 6.2 mi South 9.2 mph - N/A   Drizzle
6:25 PM 50.0 °F - 48.2 °F 94% 29.68 in 6.2 mi South 10.4 mph - N/A   Light Drizzle
6:55 PM 50.0 °F - 46.4 °F 87% 29.68 in 6.2 mi South 10.4 mph - N/A Rain Drizzle
7:25 PM 48.2 °F - 44.6 °F 87% 29.65 in 6.2 mi South 11.5 mph - N/A Rain Light Rain
7:55 PM 50.0 °F - 46.4 °F 87% 29.65 in 6.2 mi South 6.9 mph - N/A   Overcast
8:00 PM 49 °F - 46 °F 86% 29.67 in 12 mi South 6.7 mph - - Rain Rain
8:25 PM 50.0 °F - 46.4 °F 87% 29.65 in 6.2 mi SSE 5.8 mph - N/A   Mostly Cloudy
8:55 PM 50.0 °F - 46.4 °F 87% 29.62 in 6.2 mi SE 6.9 mph - N/A   Mostly Cloudy
9:25 PM 50.0 °F - 46.4 °F 87% 29.62 in 6.2 mi SE 9.2 mph - N/A   Mostly Cloudy
9:55 PM 50.0 °F - 46.4 °F 87% 29.62 in 6.2 mi SE 10.4 mph - N/A   Overcast
10:25 PM 50.0 °F - 46.4 °F 87% 29.59 in 6.2 mi SE 10.4 mph - N/A Rain Light Rain
10:55 PM 50.0 °F - 46.4 °F 87% 29.59 in 6.2 mi SE 11.5 mph - N/A   Light Drizzle
11:00 PM 50 °F - 47 °F 85% 29.60 in 6 mi SE 11.2 mph - - Rain Drizzle
11:25 PM 50.0 °F - 46.4 °F 87% 29.59 in 6.2 mi SE 10.4 mph - N/A   Light Drizzle
11:55 PM 50.0 °F - 46.4 °F 87% 29.56 in 6.2 mi ESE 10.4 mph - N/A   Light Drizzle